Taba International, Egypt

10:54 AM EET on April 26, 2017 (GMT +0200)
Taba International

Weather History for HETB - October, 2012

Change the Weather History Date:

Tuesday, October 16, 2012

  Actual Average Record
Temperature  
Mean Temperature 80 °F -  
Max Temperature 95 °F - - ()
Min Temperature 66 °F - - ()
Cooling Degree Days 16    
Growing Degree Days 30 (Base 50)    
Moisture  
Dew Point 50 °F    
Average Humidity 43    
Maximum Humidity 83    
Minimum Humidity 8    
Precipitation  
Precipitation 0.00 in - - ()
Sea Level Pressure  
Sea Level Pressure 30.10 in    
Wind  
Wind Speed 1 mph ()    
Max Wind Speed 6 mph    
Max Gust Speed -    
Visibility 6.2 miles    
Events      
T = Trace of Precipitation, MM = Missing Value Source: Averaged Metar Reports

Daily Weather History Graph

Daily Weather History Graph

Search for Another Location

Airport or City:

Trip Planner

Search our weather history database for the weather conditions in past years. The results will help you decide how hot, cold, wet, or windy it might be!

Date:

Astronomy

Oct. 16, 2012 Rise Set
Actual Time 5:43 AM EET 5:09 PM EET
Civil Twilight 5:19 AM EET 5:33 PM EET
Nautical Twilight 4:51 AM EET 6:00 PM EET
Astronomical Twilight 4:23 AM EET 6:28 PM EET
Moon 6:33 AM EET (10/16) 5:46 PM EET (10/16)
Length of Visible Light 12h 14m
Length of Day
11h 25m
New Moon, 1% of the Moon is Illuminated
Oct 16
New Moon
Oct 22
First Quarter
Oct 29
Full
Nov 7
Last Quarter
Nov 14
New

Hourly Weather History & Observations

Time (EET) Temp. Heat Index Dew Point Humidity Pressure Visibility Wind Dir Wind Speed Gust Speed Precip Events Conditions
12:00 AM 69.8 °F - 48.2 °F 46% 30.12 in - West 3.5 mph - N/A   Clear
1:00 AM 69.8 °F - 51.8 °F 53% 30.12 in - Calm Calm - N/A   Clear
2:00 AM 69.8 °F - 53.6 °F 56% 30.12 in - Calm Calm - N/A   Clear
3:00 AM 69.8 °F - 57.2 °F 64% 30.09 in - Calm Calm - N/A   Clear
4:00 AM 66.2 °F - 60.8 °F 83% 30.09 in - Calm Calm - N/A   Clear
5:00 AM 66.2 °F - 60.8 °F 83% 30.09 in - Calm Calm - N/A   Clear
6:00 AM 66.2 °F - 60.8 °F 83% 30.09 in - Calm Calm - N/A   Clear
7:00 AM 68.0 °F - 51.8 °F 56% 30.12 in - Calm Calm - N/A   Clear
8:00 AM 71.6 °F - 60.8 °F 69% 30.12 in - Calm Calm - N/A   Clear
9:00 AM 78.8 °F - 57.2 °F 47% 30.12 in - Calm Calm - N/A   Clear
10:00 AM 82.4 °F 81.7 °F 55.4 °F 39% 30.12 in - Calm Calm - N/A   Clear
11:00 AM 86.0 °F 84.5 °F 55.4 °F 35% 30.12 in - NNE 4.6 mph - N/A   Clear
12:00 PM 95.0 °F - 32.0 °F 11% 30.09 in - Calm Calm - N/A   Clear
1:00 PM 95.0 °F - 24.8 °F 8% 30.09 in - SE 4.6 mph - N/A   Clear
2:00 PM 86.0 °F 84.5 °F 55.4 °F 35% 30.12 in - NNE 4.6 mph - N/A   Clear
3:00 PM 93.2 °F - 32.0 °F 11% 30.06 in - East 4.6 mph - N/A   Clear
4:00 PM 91.4 °F - 37.4 °F 15% 30.06 in 6.2 mi East 3.5 mph - N/A   Partly Cloudy
5:00 PM 89.6 °F - 44.6 °F 21% 30.09 in 6.2 mi Calm Calm - N/A   Partly Cloudy
6:00 PM 86.0 °F - 48.2 °F 27% 30.09 in 6.2 mi Calm Calm - N/A   Partly Cloudy
7:00 PM 82.4 °F - 50.0 °F 32% 30.12 in - North 5.8 mph - N/A   Clear
8:00 PM 82.4 °F - 50.0 °F 32% 30.12 in - North 2.3 mph - N/A   Clear
9:00 PM 80.6 °F 80.3 °F 53.6 °F 39% 30.12 in - Calm Calm - N/A   Clear
10:00 PM 77.0 °F - 53.6 °F 44% 30.12 in - Calm Calm - N/A   Clear
11:00 PM 75.2 °F - 53.6 °F 47% 30.12 in - West 2.3 mph - N/A   Clear